Kenai, AK

7:58 AM AKST on December 12, 2017 (GMT -0900)
Kenai Municipal

Weather History for PAEN - December, 2012

Change the Weather History Date:

Thursday, December 6, 2012

  Actual Average Record
Temperature  
Mean Temperature -3 °F -  
Max Temperature 7 °F 22 °F 44 °F (1969)
Min Temperature -13 °F 8 °F -30 °F (1975)
Degree Days  
Heating Degree Days 68    
Moisture  
Dew Point -12 °F    
Average Humidity 77    
Maximum Humidity 83    
Minimum Humidity 67    
Precipitation  
Precipitation 0.00 in - - ()
Sea Level Pressure  
Sea Level Pressure 29.79 in    
Wind  
Wind Speed 1 mph (ENE)    
Max Wind Speed 5 mph    
Max Gust Speed -    
Visibility 10 miles    
Events      
Averages and records for this station are not official NWS values.
T = Trace of Precipitation, MM = Missing Value Source: NWS Daily Summary

Daily Weather History Graph

Daily Weather History Graph

Search for Another Location

Airport or City:

Trip Planner

Search our weather history database for the weather conditions in past years. The results will help you decide how hot, cold, wet, or windy it might be!

Date:

Astronomy

Dec. 06, 2012 Rise Set
Actual Time 9:55 AM AKST 3:56 PM AKST
Civil Twilight 8:58 AM AKST 4:54 PM AKST
Nautical Twilight 8:01 AM AKST 5:51 PM AKST
Astronomical Twilight 7:09 AM AKST 6:43 PM AKST
Moon 12:30 AM AKST (12/6) 1:10 PM AKST (12/6)
Length of Visible Light 7h 55m
Length of Day
6h 00m
Waning Gibbous, 48% of the Moon is Illuminated
Dec 6
Waning Gibbous
Dec 12
New
Dec 19
First Quarter
Dec 28
Full
Jan 4
Last Quarter

Hourly Weather History & Observations

Time (AKST) Temp. Windchill Dew Point Humidity Pressure Visibility Wind Dir Wind Speed Gust Speed Precip Events Conditions
12:53 AM -13.0 °F - -18.9 °F 75% 29.64 in 10.0 mi Calm Calm - N/A   Clear
1:53 AM -11.0 °F -22.8 °F -15.0 °F 83% 29.65 in 10.0 mi ESE 4.6 mph - N/A   Clear
3:53 AM -11.0 °F -20.4 °F -16.1 °F 78% 29.67 in 10.0 mi East 3.5 mph - N/A   Clear
4:53 AM -11.9 °F - -17.0 °F 78% 29.68 in 10.0 mi Calm Calm - N/A   Clear
5:53 AM -11.9 °F - -18.0 °F 74% 29.68 in 10.0 mi Calm Calm - N/A   Scattered Clouds
6:53 AM -9.0 °F -18.2 °F -14.1 °F 79% 29.70 in 10.0 mi ESE 3.5 mph - N/A   Scattered Clouds
7:53 AM -9.9 °F - -15.0 °F 78% 29.71 in 10.0 mi Calm Calm - N/A   Clear
8:53 AM -11.0 °F - -16.1 °F 78% 29.73 in 10.0 mi Calm Calm - N/A   Partly Cloudy
9:53 AM -11.0 °F - -16.1 °F 78% 29.75 in 10.0 mi Calm Calm - N/A   Scattered Clouds
10:53 AM -9.0 °F -18.2 °F -14.1 °F 79% 29.78 in 10.0 mi North 3.5 mph - N/A   Clear
11:53 AM -5.1 °F - -11.0 °F 76% 29.79 in 10.0 mi Calm Calm - N/A   Clear
12:53 PM 3.9 °F - -2.9 °F 73% 29.80 in 10.0 mi Calm Calm - N/A   Clear
1:53 PM 7.0 °F - -2.0 °F 67% 29.81 in 10.0 mi Calm Calm - N/A   Clear
2:53 PM 7.0 °F - -2.0 °F 67% 29.82 in 10.0 mi Calm Calm - N/A   Clear
3:53 PM 3.9 °F - -4.0 °F 70% 29.83 in 10.0 mi Calm Calm - N/A   Clear
4:53 PM -2.0 °F - -6.0 °F 83% 29.83 in 10.0 mi Calm Calm - N/A   Clear
5:53 PM -5.1 °F - -9.0 °F 83% 29.84 in 10.0 mi Calm Calm - N/A   Clear
6:53 PM -7.1 °F - -11.9 °F 79% 29.86 in 10.0 mi Calm Calm - N/A   Clear
7:53 PM -9.0 °F -18.2 °F -14.1 °F 79% 29.87 in 10.0 mi NE 3.5 mph - N/A   Clear
8:53 PM -9.0 °F - -14.1 °F 79% 29.89 in 10.0 mi Calm Calm - N/A   Clear
9:53 PM -9.9 °F -19.2 °F -15.0 °F 78% 29.90 in 10.0 mi NE 3.5 mph - N/A   Clear
10:53 PM -9.9 °F - -14.1 °F 82% 29.91 in 10.0 mi Calm Calm - N/A   Clear
11:53 PM -11.0 °F -20.4 °F -16.1 °F 78% 29.92 in 10.0 mi ENE 3.5 mph - N/A   Clear